contact:dominique.lefevre@mio.osupytheas.fr, maurice.libes@osupytheas.fr, didier.mallarino@osupytheas.fr
Project:EMSO http://www.emso-fr.org/EMSO-France
Depth: 2436.0 m
Title:EMSO Ligure Ouest : Data MII capteur MICROCAT
DateTime_Computer,Latitude,Longitude,Temperature,Conductivity,Pressure,DateTime_Instrument
DateTime_Computer,Latitude,Longitude,degC,S m-1,dbar,DateTime_Instrument
2023-12-20T00:00:11Z,42.805,6.029,13.3096,4.60144,2470.74,2023-12-20T02:02:41Z
2023-12-20T00:03:14Z,42.805,6.029,13.3070,4.60188,2470.73,2023-12-20T02:05:45Z
2023-12-20T00:06:17Z,42.805,6.029,13.3112,4.60145,2470.74,2023-12-20T02:08:48Z
2023-12-20T00:09:21Z,42.805,6.029,13.3078,4.60141,2470.73,2023-12-20T02:11:51Z
2023-12-20T00:12:24Z,42.805,6.029,13.3104,4.60153,2470.73,2023-12-20T02:14:54Z
2023-12-20T00:15:27Z,42.805,6.029,13.3101,4.60145,2470.754,2023-12-20T02:17:57Z
2023-12-20T00:18:30Z,42.805,6.029,13.3106,4.60151,2470.74,2023-12-20T02:21:00Z
2023-12-20T00:21:33Z,42.805,6.029,13.3099,4.60150,2470.754,2023-12-20T02:24:03Z
2023-12-20T00:24:36Z,42.805,6.029,13.3087,4.60143,2470.74,2023-12-20T02:27:06Z
2023-12-20T00:27:39Z,42.805,6.029,13.3082,4.60168,2470.73,2023-12-20T02:30:09Z
2023-12-20T00:30:42Z,42.805,6.029,13.3080,4.60149,2470.73,2023-12-20T02:33:12Z
2023-12-20T00:33:45Z,42.805,6.029,13.3092,4.60144,2470.754,2023-12-20T02:36:15Z
2023-12-20T00:36:48Z,42.805,6.029,13.3085,4.60144,2470.74,2023-12-20T02:39:18Z
2023-12-20T00:39:51Z,42.805,6.029,13.3080,4.60150,2470.73,2023-12-20T02:42:22Z
2023-12-20T00:42:54Z,42.805,6.029,13.3074,4.60144,2470.717,2023-12-20T02:45:25Z
2023-12-20T00:45:58Z,42.805,6.029,13.3075,4.60146,2470.707,2023-12-20T02:48:28Z
2023-12-20T00:49:01Z,42.805,6.029,13.3084,4.60140,2470.717,2023-12-20T02:51:31Z
2023-12-20T00:52:04Z,42.805,6.029,13.3089,4.60137,2470.717,2023-12-20T02:54:34Z
2023-12-20T00:55:07Z,42.805,6.029,13.3084,4.60150,2470.693,2023-12-20T02:57:37Z
2023-12-20T00:58:10Z,42.805,6.029,13.3075,4.60147,2470.754,2023-12-20T03:00:40Z
2023-12-20T01:01:13Z,42.805,6.029,13.3063,4.60142,2470.74,2023-12-20T03:03:43Z
2023-12-20T01:04:16Z,42.805,6.029,13.3075,4.60155,2470.73,2023-12-20T03:06:46Z
2023-12-20T01:07:19Z,42.805,6.029,13.3081,4.60147,2470.73,2023-12-20T03:09:49Z
2023-12-20T01:10:22Z,42.805,6.029,13.3079,4.60135,2470.717,2023-12-20T03:12:52Z
2023-12-20T01:13:25Z,42.805,6.029,13.3084,4.60143,2470.73,2023-12-20T03:15:55Z
2023-12-20T01:16:28Z,42.805,6.029,13.3070,4.60145,2470.73,2023-12-20T03:18:59Z
2023-12-20T01:19:31Z,42.805,6.029,13.3078,4.60144,2470.754,2023-12-20T03:22:02Z
2023-12-20T01:22:34Z,42.805,6.029,13.3080,4.60144,2470.717,2023-12-20T03:25:05Z
2023-12-20T01:25:38Z,42.805,6.029,13.3090,4.60147,2470.717,2023-12-20T03:28:08Z
2023-12-20T01:28:41Z,42.805,6.029,13.3096,4.60143,2470.73,2023-12-20T03:31:11Z
2023-12-20T01:31:44Z,42.805,6.029,13.3094,4.60152,2470.73,2023-12-20T03:34:14Z
2023-12-20T01:34:47Z,42.805,6.029,13.3076,4.60147,2470.73,2023-12-20T03:37:17Z
2023-12-20T01:37:50Z,42.805,6.029,13.3082,4.60152,2470.73,2023-12-20T03:40:20Z
2023-12-20T01:40:53Z,42.805,6.029,13.3111,4.60150,2470.73,2023-12-20T03:43:23Z
2023-12-20T01:43:56Z,42.805,6.029,13.3079,4.60162,2470.73,2023-12-20T03:46:26Z
2023-12-20T01:46:59Z,42.805,6.029,13.3082,4.60162,2470.717,2023-12-20T03:49:29Z
2023-12-20T01:50:02Z,42.805,6.029,13.3070,4.60179,2470.74,2023-12-20T03:52:32Z
2023-12-20T01:53:05Z,42.805,6.029,13.3071,4.60154,2470.693,2023-12-20T03:55:36Z
2023-12-20T01:56:08Z,42.805,6.029,13.3098,4.60142,2470.717,2023-12-20T03:58:39Z
2023-12-20T01:59:11Z,42.805,6.029,13.3082,4.60148,2470.717,2023-12-20T04:01:42Z
2023-12-20T02:02:15Z,42.805,6.029,13.3052,4.60162,2470.717,2023-12-20T04:04:45Z
2023-12-20T02:05:18Z,42.805,6.029,13.3161,4.60158,2470.717,2023-12-20T04:07:48Z
2023-12-20T02:08:21Z,42.805,6.029,13.3085,4.60159,2470.73,2023-12-20T04:10:51Z
2023-12-20T02:11:24Z,42.805,6.029,13.3076,4.60187,2470.693,2023-12-20T04:13:54Z
2023-12-20T02:14:27Z,42.805,6.029,13.3052,4.60152,2470.73,2023-12-20T04:16:57Z
2023-12-20T02:17:30Z,42.805,6.029,13.3039,4.60155,2470.707,2023-12-20T04:20:00Z
2023-12-20T02:20:33Z,42.805,6.029,13.3036,4.60150,2470.74,2023-12-20T04:23:03Z
2023-12-20T02:23:36Z,42.805,6.029,13.3036,4.60148,2470.693,2023-12-20T04:26:06Z
2023-12-20T02:26:39Z,42.805,6.029,13.3035,4.60137,2470.717,2023-12-20T04:29:09Z
2023-12-20T02:29:42Z,42.805,6.029,13.3034,4.60138,2470.717,2023-12-20T04:32:12Z
2023-12-20T02:32:45Z,42.805,6.029,13.3037,4.60147,2470.73,2023-12-20T04:35:16Z
2023-12-20T02:35:48Z,42.805,6.029,13.3036,4.60144,2470.717,2023-12-20T04:38:19Z
2023-12-20T02:38:52Z,42.805,6.029,13.3036,4.60132,2470.693,2023-12-20T04:41:22Z
2023-12-20T02:41:55Z,42.805,6.029,13.3061,4.60140,2470.73,2023-12-20T04:44:25Z
2023-12-20T02:44:58Z,42.805,6.029,13.3104,4.60132,2470.707,2023-12-20T04:47:28Z
2023-12-20T02:48:01Z,42.805,6.029,13.3086,4.60148,2470.693,2023-12-20T04:50:31Z
2023-12-20T02:51:04Z,42.805,6.029,13.3030,4.60141,2470.693,2023-12-20T04:53:34Z
2023-12-20T02:54:07Z,42.805,6.029,13.3032,4.60127,2470.693,2023-12-20T04:56:37Z
2023-12-20T02:57:10Z,42.805,6.029,13.3031,4.60119,2470.73,2023-12-20T04:59:40Z
2023-12-20T03:00:13Z,42.805,6.029,13.3033,4.60119,2470.73,2023-12-20T05:02:43Z
2023-12-20T03:03:16Z,42.805,6.029,13.3029,4.60119,2470.693,2023-12-20T05:05:46Z
2023-12-20T03:06:19Z,42.805,6.029,13.3034,4.60131,2470.693,2023-12-20T05:08:49Z
2023-12-20T03:09:22Z,42.805,6.029,13.3031,4.60132,2470.717,2023-12-20T05:11:53Z
2023-12-20T03:12:25Z,42.805,6.029,13.3036,4.60127,2470.707,2023-12-20T05:14:56Z
2023-12-20T03:15:29Z,42.805,6.029,13.3034,4.60127,2470.693,2023-12-20T05:17:59Z
2023-12-20T03:18:32Z,42.805,6.029,13.3031,4.60126,2470.707,2023-12-20T05:21:02Z
2023-12-20T03:21:35Z,42.805,6.029,13.3033,4.60119,2470.693,2023-12-20T05:24:05Z
2023-12-20T03:24:38Z,42.805,6.029,13.3031,4.60124,2470.693,2023-12-20T05:27:08Z
2023-12-20T03:27:41Z,42.805,6.029,13.3029,4.60117,2470.693,2023-12-20T05:30:11Z
2023-12-20T03:30:44Z,42.805,6.029,13.3034,4.60117,2470.693,2023-12-20T05:33:14Z
2023-12-20T03:33:47Z,42.805,6.029,13.3029,4.60113,2470.67,2023-12-20T05:36:17Z
2023-12-20T03:36:50Z,42.805,6.029,13.3034,4.60117,2470.717,2023-12-20T05:39:20Z
2023-12-20T03:39:53Z,42.805,6.029,13.3033,4.60121,2470.67,2023-12-20T05:42:23Z
2023-12-20T03:42:56Z,42.805,6.029,13.3034,4.60118,2470.693,2023-12-20T05:45:26Z
2023-12-20T03:45:59Z,42.805,6.029,13.3031,4.60118,2470.67,2023-12-20T05:48:30Z
2023-12-20T03:49:02Z,42.805,6.029,13.3034,4.60121,2470.67,2023-12-20T05:51:33Z
2023-12-20T03:52:06Z,42.805,6.029,13.3032,4.60113,2470.717,2023-12-20T05:54:36Z
2023-12-20T03:55:09Z,42.805,6.029,13.3028,4.60112,2470.707,2023-12-20T05:57:39Z
2023-12-20T03:58:12Z,42.805,6.029,13.3034,4.60114,2470.684,2023-12-20T06:00:42Z
2023-12-20T04:01:15Z,42.805,6.029,13.3029,4.60117,2470.67,2023-12-20T06:03:45Z
2023-12-20T04:04:18Z,42.805,6.029,13.3035,4.60114,2470.707,2023-12-20T06:06:48Z
2023-12-20T04:07:21Z,42.805,6.029,13.3034,4.60113,2470.693,2023-12-20T06:09:51Z
2023-12-20T04:10:24Z,42.805,6.029,13.3032,4.60112,2470.679,2023-12-20T06:12:54Z
2023-12-20T04:13:27Z,42.805,6.029,13.3032,4.60112,2470.67,2023-12-20T06:15:57Z
2023-12-20T04:16:30Z,42.805,6.029,13.3032,4.60117,2470.646,2023-12-20T06:19:00Z
2023-12-20T04:19:33Z,42.805,6.029,13.3034,4.60114,2470.67,2023-12-20T06:22:03Z
2023-12-20T04:22:36Z,42.805,6.029,13.3030,4.60119,2470.67,2023-12-20T06:25:06Z
2023-12-20T04:25:39Z,42.805,6.029,13.3034,4.60113,2470.67,2023-12-20T06:28:10Z
2023-12-20T04:28:42Z,42.805,6.029,13.3031,4.60114,2470.646,2023-12-20T06:31:13Z
2023-12-20T04:31:46Z,42.805,6.029,13.3033,4.60110,2470.693,2023-12-20T06:34:16Z
2023-12-20T04:34:49Z,42.805,6.029,13.3036,4.60110,2470.684,2023-12-20T06:37:19Z
2023-12-20T04:37:52Z,42.805,6.029,13.3031,4.60111,2470.646,2023-12-20T06:40:22Z
2023-12-20T04:40:55Z,42.805,6.029,13.3035,4.60112,2470.661,2023-12-20T06:43:25Z
2023-12-20T04:43:58Z,42.805,6.029,13.3034,4.60112,2470.646,2023-12-20T06:46:28Z
2023-12-20T04:47:01Z,42.805,6.029,13.3031,4.60117,2470.646,2023-12-20T06:49:31Z
2023-12-20T04:50:04Z,42.805,6.029,13.3033,4.60118,2470.67,2023-12-20T06:52:34Z
2023-12-20T04:53:07Z,42.805,6.029,13.3034,4.60114,2470.67,2023-12-20T06:55:37Z
2023-12-20T04:56:10Z,42.805,6.029,13.3032,4.60111,2470.684,2023-12-20T06:58:40Z
2023-12-20T04:59:13Z,42.805,6.029,13.3032,4.60110,2470.646,2023-12-20T07:01:43Z
2023-12-20T05:02:16Z,42.805,6.029,13.3033,4.60114,2470.684,2023-12-20T07:04:47Z
2023-12-20T05:05:19Z,42.805,6.029,13.3031,4.60111,2470.646,2023-12-20T07:07:50Z
2023-12-20T05:08:23Z,42.805,6.029,13.3034,4.60112,2470.684,2023-12-20T07:10:53Z
2023-12-20T05:11:26Z,42.805,6.029,13.3034,4.60111,2470.67,2023-12-20T07:13:56Z
2023-12-20T05:14:29Z,42.805,6.029,13.3034,4.60111,2470.684,2023-12-20T07:16:59Z
2023-12-20T05:17:32Z,42.805,6.029,13.3034,4.60110,2470.624,2023-12-20T07:20:02Z
2023-12-20T05:20:35Z,42.805,6.029,13.3032,4.60110,2470.684,2023-12-20T07:23:05Z
2023-12-20T05:23:38Z,42.805,6.029,13.3032,4.60111,2470.661,2023-12-20T07:26:08Z
2023-12-20T05:26:41Z,42.805,6.029,13.3033,4.60110,2470.646,2023-12-20T07:29:11Z
2023-12-20T05:29:44Z,42.805,6.029,13.3032,4.60110,2470.67,2023-12-20T07:32:14Z
2023-12-20T05:32:46Z,42.805,6.029,13.3034,4.60112,2470.684,2023-12-20T07:35:16Z
2023-12-20T05:35:49Z,42.805,6.029,13.3035,4.60111,2470.707,2023-12-20T07:38:19Z
2023-12-20T05:38:52Z,42.805,6.029,13.3032,4.60110,2470.67,2023-12-20T07:41:22Z
2023-12-20T05:41:55Z,42.805,6.029,13.3033,4.60110,2470.67,2023-12-20T07:44:25Z
2023-12-20T05:44:58Z,42.805,6.029,13.3034,4.60110,2470.67,2023-12-20T07:47:28Z
2023-12-20T05:48:01Z,42.805,6.029,13.3029,4.60114,2470.684,2023-12-20T07:50:31Z
2023-12-20T05:51:04Z,42.805,6.029,13.3032,4.60111,2470.646,2023-12-20T07:53:34Z
2023-12-20T05:54:07Z,42.805,6.029,13.3034,4.60112,2470.67,2023-12-20T07:56:37Z
2023-12-20T05:57:10Z,42.805,6.029,13.3032,4.60111,2470.661,2023-12-20T07:59:40Z
2023-12-20T06:00:13Z,42.805,6.029,13.3029,4.60110,2470.624,2023-12-20T08:02:43Z
2023-12-20T06:03:16Z,42.805,6.029,13.3036,4.60111,2470.67,2023-12-20T08:05:47Z
2023-12-20T06:06:19Z,42.805,6.029,13.3029,4.60112,2470.646,2023-12-20T08:08:50Z
2023-12-20T06:09:22Z,42.805,6.029,13.3033,4.60113,2470.646,2023-12-20T08:11:53Z
2023-12-20T06:12:26Z,42.805,6.029,13.3034,4.60112,2470.67,2023-12-20T08:14:56Z
2023-12-20T06:15:29Z,42.805,6.029,13.3034,4.60110,2470.67,2023-12-20T08:17:59Z
2023-12-20T06:18:32Z,42.805,6.029,13.3031,4.60110,2470.67,2023-12-20T08:21:02Z
2023-12-20T06:21:35Z,42.805,6.029,13.3034,4.60110,2470.646,2023-12-20T08:24:05Z
2023-12-20T06:24:38Z,42.805,6.029,13.3029,4.60114,2470.661,2023-12-20T08:27:08Z
2023-12-20T06:27:41Z,42.805,6.029,13.3035,4.60109,2470.646,2023-12-20T08:30:11Z
2023-12-20T06:30:44Z,42.805,6.029,13.3031,4.60111,2470.684,2023-12-20T08:33:14Z
2023-12-20T06:33:47Z,42.805,6.029,13.3033,4.60111,2470.661,2023-12-20T08:36:17Z
2023-12-20T06:36:50Z,42.805,6.029,13.3031,4.60108,2470.646,2023-12-20T08:39:20Z
2023-12-20T06:39:53Z,42.805,6.029,13.3029,4.60110,2470.646,2023-12-20T08:42:24Z
2023-12-20T06:42:56Z,42.805,6.029,13.3034,4.60112,2470.67,2023-12-20T08:45:27Z
2023-12-20T06:45:59Z,42.805,6.029,13.3031,4.60110,2470.67,2023-12-20T08:48:30Z
2023-12-20T06:49:03Z,42.805,6.029,13.3031,4.60114,2470.67,2023-12-20T08:51:33Z
2023-12-20T06:52:06Z,42.805,6.029,13.3033,4.60109,2470.684,2023-12-20T08:54:36Z
2023-12-20T06:55:09Z,42.805,6.029,13.3034,4.60113,2470.646,2023-12-20T08:57:39Z
2023-12-20T06:58:12Z,42.805,6.029,13.3030,4.60110,2470.624,2023-12-20T09:00:42Z
2023-12-20T07:01:15Z,42.805,6.029,13.3034,4.60108,2470.661,2023-12-20T09:03:45Z
2023-12-20T07:04:18Z,42.805,6.029,13.3033,4.60113,2470.646,2023-12-20T09:06:48Z
2023-12-20T07:07:21Z,42.805,6.029,13.3033,4.60110,2470.67,2023-12-20T09:09:51Z
2023-12-20T07:10:24Z,42.805,6.029,13.3034,4.60109,2470.67,2023-12-20T09:12:54Z
2023-12-20T07:13:27Z,42.805,6.029,13.3031,4.60112,2470.646,2023-12-20T09:15:57Z
2023-12-20T07:16:30Z,42.805,6.029,13.3027,4.60110,2470.661,2023-12-20T09:19:00Z
2023-12-20T07:19:33Z,42.805,6.029,13.3032,4.60110,2470.67,2023-12-20T09:22:04Z
2023-12-20T07:22:36Z,42.805,6.029,13.3032,4.60109,2470.624,2023-12-20T09:25:07Z
2023-12-20T07:25:40Z,42.805,6.029,13.3031,4.60109,2470.67,2023-12-20T09:28:10Z
2023-12-20T07:28:43Z,42.805,6.029,13.3034,4.60107,2470.661,2023-12-20T09:31:13Z
2023-12-20T07:31:46Z,42.805,6.029,13.3031,4.60108,2470.646,2023-12-20T09:34:16Z
2023-12-20T07:34:49Z,42.805,6.029,13.3034,4.60110,2470.624,2023-12-20T09:37:19Z
2023-12-20T07:37:52Z,42.805,6.029,13.3036,4.60110,2470.646,2023-12-20T09:40:22Z
2023-12-20T07:40:55Z,42.805,6.029,13.3033,4.60110,2470.661,2023-12-20T09:43:25Z
2023-12-20T07:43:58Z,42.805,6.029,13.3031,4.60110,2470.646,2023-12-20T09:46:28Z
2023-12-20T07:47:01Z,42.805,6.029,13.3028,4.60108,2470.646,2023-12-20T09:49:31Z
2023-12-20T07:50:04Z,42.805,6.029,13.3031,4.60109,2470.624,2023-12-20T09:52:34Z
2023-12-20T07:53:07Z,42.805,6.029,13.3031,4.60109,2470.646,2023-12-20T09:55:37Z
2023-12-20T07:56:10Z,42.805,6.029,13.3034,4.60109,2470.633,2023-12-20T09:58:41Z
2023-12-20T07:59:13Z,42.805,6.029,13.3031,4.60110,2470.646,2023-12-20T10:01:44Z
2023-12-20T08:02:16Z,42.805,6.029,13.3032,4.60109,2470.661,2023-12-20T10:04:47Z
2023-12-20T08:05:20Z,42.805,6.029,13.3033,4.60110,2470.646,2023-12-20T10:07:50Z
2023-12-20T08:08:23Z,42.805,6.029,13.3032,4.60110,2470.661,2023-12-20T10:10:53Z
2023-12-20T08:11:26Z,42.805,6.029,13.3034,4.60107,2470.693,2023-12-20T10:13:56Z
2023-12-20T08:14:29Z,42.805,6.029,13.3031,4.60110,2470.67,2023-12-20T10:16:59Z
2023-12-20T08:17:32Z,42.805,6.029,13.3031,4.60108,2470.624,2023-12-20T10:20:02Z
2023-12-20T08:20:35Z,42.805,6.029,13.3034,4.60109,2470.624,2023-12-20T10:23:05Z
2023-12-20T08:23:38Z,42.805,6.029,13.3034,4.60108,2470.646,2023-12-20T10:26:08Z
2023-12-20T08:26:41Z,42.805,6.029,13.3030,4.60108,2470.684,2023-12-20T10:29:11Z
2023-12-20T08:29:44Z,42.805,6.029,13.3034,4.60108,2470.646,2023-12-20T10:32:14Z
2023-12-20T08:32:47Z,42.805,6.029,13.3034,4.60109,2470.646,2023-12-20T10:35:18Z
2023-12-20T08:35:50Z,42.805,6.029,13.3032,4.60108,2470.67,2023-12-20T10:38:21Z
2023-12-20T08:38:54Z,42.805,6.029,13.3035,4.60111,2470.646,2023-12-20T10:41:24Z
2023-12-20T08:41:57Z,42.805,6.029,13.3029,4.60111,2470.67,2023-12-20T10:44:27Z
2023-12-20T08:45:00Z,42.805,6.029,13.3032,4.60108,2470.684,2023-12-20T10:47:30Z
2023-12-20T08:48:03Z,42.805,6.029,13.3036,4.60107,2470.67,2023-12-20T10:50:33Z
2023-12-20T08:51:06Z,42.805,6.029,13.3034,4.60114,2470.67,2023-12-20T10:53:36Z
2023-12-20T08:54:09Z,42.805,6.029,13.3031,4.60109,2470.684,2023-12-20T10:56:39Z
2023-12-20T08:57:12Z,42.805,6.029,13.3032,4.60108,2470.67,2023-12-20T10:59:42Z
2023-12-20T09:00:15Z,42.805,6.029,13.3033,4.60113,2470.646,2023-12-20T11:02:45Z
2023-12-20T09:03:18Z,42.805,6.029,13.3034,4.60114,2470.67,2023-12-20T11:05:48Z
2023-12-20T09:06:21Z,42.805,6.029,13.3034,4.60110,2470.661,2023-12-20T11:08:52Z
2023-12-20T09:09:24Z,42.805,6.029,13.3036,4.60112,2470.646,2023-12-20T11:11:55Z
2023-12-20T09:12:28Z,42.805,6.029,13.3037,4.60114,2470.693,2023-12-20T11:14:58Z
2023-12-20T09:15:31Z,42.805,6.029,13.3034,4.60109,2470.73,2023-12-20T11:18:01Z
2023-12-20T09:18:34Z,42.805,6.029,13.3030,4.60110,2470.693,2023-12-20T11:21:04Z
2023-12-20T09:21:37Z,42.805,6.029,13.3032,4.60110,2470.67,2023-12-20T11:24:07Z
2023-12-20T09:24:40Z,42.805,6.029,13.3038,4.60111,2470.67,2023-12-20T11:27:10Z
2023-12-20T09:27:43Z,42.805,6.029,13.3031,4.60108,2470.693,2023-12-20T11:30:13Z
2023-12-20T09:30:46Z,42.805,6.029,13.3037,4.60110,2470.693,2023-12-20T11:33:16Z
2023-12-20T09:33:49Z,42.805,6.029,13.3032,4.60110,2470.717,2023-12-20T11:36:19Z
2023-12-20T09:36:52Z,42.805,6.029,13.3034,4.60110,2470.693,2023-12-20T11:39:22Z
2023-12-20T09:39:55Z,42.805,6.029,13.3031,4.60109,2470.717,2023-12-20T11:42:25Z
2023-12-20T09:42:58Z,42.805,6.029,13.3036,4.60110,2470.693,2023-12-20T11:45:29Z
2023-12-20T09:46:01Z,42.805,6.029,13.3033,4.60110,2470.693,2023-12-20T11:48:32Z
2023-12-20T09:49:05Z,42.805,6.029,13.3033,4.60109,2470.754,2023-12-20T11:51:35Z
2023-12-20T09:52:08Z,42.805,6.029,13.3034,4.60110,2470.707,2023-12-20T11:54:38Z
2023-12-20T09:55:11Z,42.805,6.029,13.3035,4.60110,2470.707,2023-12-20T11:57:41Z
2023-12-20T09:58:14Z,42.805,6.029,13.3034,4.60111,2470.717,2023-12-20T12:00:44Z
2023-12-20T10:01:17Z,42.805,6.029,13.3036,4.60117,2470.787,2023-12-20T12:03:47Z
2023-12-20T10:04:20Z,42.805,6.029,13.3035,4.60110,2470.717,2023-12-20T12:06:50Z
2023-12-20T10:07:23Z,42.805,6.029,13.3031,4.60109,2470.717,2023-12-20T12:09:53Z
2023-12-20T10:10:26Z,42.805,6.029,13.3034,4.60109,2470.73,2023-12-20T12:12:56Z
2023-12-20T10:13:29Z,42.805,6.029,13.3034,4.60110,2470.754,2023-12-20T12:15:59Z
2023-12-20T10:16:32Z,42.805,6.029,13.3032,4.60109,2470.754,2023-12-20T12:19:03Z
2023-12-20T10:19:35Z,42.805,6.029,13.3029,4.60110,2470.74,2023-12-20T12:22:06Z
2023-12-20T10:22:38Z,42.805,6.029,13.3033,4.60108,2470.754,2023-12-20T12:25:09Z
2023-12-20T10:25:42Z,42.805,6.029,13.3034,4.60108,2470.717,2023-12-20T12:28:12Z
2023-12-20T10:28:45Z,42.805,6.029,13.3034,4.60108,2470.763,2023-12-20T12:31:15Z
2023-12-20T10:31:48Z,42.805,6.029,13.3033,4.60110,2470.717,2023-12-20T12:34:18Z
2023-12-20T10:34:51Z,42.805,6.029,13.3031,4.60110,2470.74,2023-12-20T12:37:21Z
2023-12-20T10:37:54Z,42.805,6.029,13.3033,4.60111,2470.74,2023-12-20T12:40:24Z
2023-12-20T10:40:57Z,42.805,6.029,13.3027,4.60110,2470.763,2023-12-20T12:43:27Z
2023-12-20T10:44:00Z,42.805,6.029,13.3033,4.60112,2470.717,2023-12-20T12:46:30Z
2023-12-20T10:47:03Z,42.805,6.029,13.3036,4.60110,2470.74,2023-12-20T12:49:33Z
2023-12-20T10:50:06Z,42.805,6.029,13.3035,4.60109,2470.8,2023-12-20T12:52:36Z
2023-12-20T10:53:09Z,42.805,6.029,13.3035,4.60109,2470.787,2023-12-20T12:55:40Z
2023-12-20T10:56:12Z,42.805,6.029,13.3036,4.60114,2470.74,2023-12-20T12:58:43Z
2023-12-20T10:59:15Z,42.805,6.029,13.3031,4.60109,2470.787,2023-12-20T13:01:46Z
2023-12-20T11:02:19Z,42.805,6.029,13.3031,4.60109,2470.777,2023-12-20T13:04:49Z
2023-12-20T11:05:22Z,42.805,6.029,13.3036,4.60108,2470.754,2023-12-20T13:07:52Z
2023-12-20T11:08:25Z,42.805,6.029,13.3031,4.60110,2470.777,2023-12-20T13:10:55Z
2023-12-20T11:11:28Z,42.805,6.029,13.3033,4.60112,2470.74,2023-12-20T13:13:58Z
2023-12-20T11:14:31Z,42.805,6.029,13.3033,4.60108,2470.81,2023-12-20T13:17:01Z
2023-12-20T11:17:34Z,42.805,6.029,13.3034,4.60115,2470.763,2023-12-20T13:20:04Z
2023-12-20T11:20:37Z,42.805,6.029,13.3036,4.60109,2470.763,2023-12-20T13:23:07Z
2023-12-20T11:23:40Z,42.805,6.029,13.3031,4.60112,2470.787,2023-12-20T13:26:10Z
2023-12-20T11:26:43Z,42.805,6.029,13.3029,4.60109,2470.763,2023-12-20T13:29:13Z
2023-12-20T11:29:46Z,42.805,6.029,13.3034,4.60108,2470.787,2023-12-20T13:32:17Z
2023-12-20T11:32:48Z,42.805,6.029,13.3030,4.60112,2470.777,2023-12-20T13:35:18Z
2023-12-20T11:35:51Z,42.805,6.029,13.3031,4.60112,2470.75,2023-12-20T13:38:21Z
2023-12-20T11:38:54Z,42.805,6.029,13.3031,4.60108,2470.8,2023-12-20T13:41:24Z
2023-12-20T11:41:57Z,42.805,6.029,13.3031,4.60108,2470.763,2023-12-20T13:44:28Z
2023-12-20T11:45:00Z,42.805,6.029,13.3032,4.60108,2470.787,2023-12-20T13:47:31Z
2023-12-20T11:48:04Z,42.805,6.029,13.3031,4.60110,2470.787,2023-12-20T13:50:34Z
2023-12-20T11:51:07Z,42.805,6.029,13.3034,4.60109,2470.763,2023-12-20T13:53:37Z
2023-12-20T11:54:10Z,42.805,6.029,13.3031,4.60109,2470.763,2023-12-20T13:56:40Z
2023-12-20T11:57:13Z,42.805,6.029,13.3031,4.60109,2470.773,2023-12-20T13:59:43Z
2023-12-20T12:00:16Z,42.805,6.029,13.3034,4.60110,2470.763,2023-12-20T14:02:46Z
2023-12-20T12:03:19Z,42.805,6.029,13.3035,4.60110,2470.787,2023-12-20T14:05:49Z
2023-12-20T12:06:22Z,42.805,6.029,13.3034,4.60110,2470.81,2023-12-20T14:08:52Z
2023-12-20T12:09:25Z,42.805,6.029,13.3033,4.60110,2470.787,2023-12-20T14:11:55Z
2023-12-20T12:12:28Z,42.805,6.029,13.3034,4.60109,2470.82,2023-12-20T14:14:58Z
2023-12-20T12:15:31Z,42.805,6.029,13.3034,4.60110,2470.787,2023-12-20T14:18:02Z
2023-12-20T12:18:34Z,42.805,6.029,13.3031,4.60111,2470.81,2023-12-20T14:21:05Z
2023-12-20T12:21:37Z,42.805,6.029,13.3032,4.60109,2470.824,2023-12-20T14:24:08Z
2023-12-20T12:24:41Z,42.805,6.029,13.3032,4.60111,2470.81,2023-12-20T14:27:11Z
2023-12-20T12:27:44Z,42.805,6.029,13.3029,4.60112,2470.81,2023-12-20T14:30:14Z
2023-12-20T12:30:47Z,42.805,6.029,13.3036,4.60110,2470.787,2023-12-20T14:33:17Z
2023-12-20T12:33:50Z,42.805,6.029,13.3033,4.60110,2470.833,2023-12-20T14:36:20Z
2023-12-20T12:36:53Z,42.805,6.029,13.3037,4.60109,2470.787,2023-12-20T14:39:23Z
2023-12-20T12:39:56Z,42.805,6.029,13.3031,4.60114,2470.81,2023-12-20T14:42:26Z
2023-12-20T12:42:59Z,42.805,6.029,13.3031,4.60114,2470.787,2023-12-20T14:45:29Z
2023-12-20T12:46:02Z,42.805,6.029,13.3033,4.60112,2470.81,2023-12-20T14:48:32Z
2023-12-20T12:49:05Z,42.805,6.029,13.3032,4.60114,2470.833,2023-12-20T14:51:35Z
2023-12-20T12:52:08Z,42.805,6.029,13.3034,4.60112,2470.833,2023-12-20T14:54:39Z
2023-12-20T12:55:11Z,42.805,6.029,13.3034,4.60117,2470.81,2023-12-20T14:57:42Z
2023-12-20T12:58:15Z,42.805,6.029,13.3033,4.60111,2470.824,2023-12-20T15:00:45Z
2023-12-20T13:01:18Z,42.805,6.029,13.3036,4.60111,2470.81,2023-12-20T15:03:48Z
2023-12-20T13:04:21Z,42.805,6.029,13.3036,4.60110,2470.81,2023-12-20T15:06:51Z
2023-12-20T13:07:24Z,42.805,6.029,13.3034,4.60110,2470.824,2023-12-20T15:09:54Z
2023-12-20T13:10:27Z,42.805,6.029,13.3030,4.60109,2470.857,2023-12-20T15:12:57Z
2023-12-20T13:13:30Z,42.805,6.029,13.3034,4.60114,2470.787,2023-12-20T15:16:00Z
2023-12-20T13:16:33Z,42.805,6.029,13.3035,4.60114,2470.81,2023-12-20T15:19:03Z
2023-12-20T13:19:36Z,42.805,6.029,13.3032,4.60114,2470.833,2023-12-20T15:22:06Z
2023-12-20T13:22:39Z,42.805,6.029,13.3034,4.60112,2470.787,2023-12-20T15:25:09Z
2023-12-20T13:25:42Z,42.805,6.029,13.3031,4.60110,2470.787,2023-12-20T15:28:13Z
2023-12-20T13:28:45Z,42.805,6.029,13.3031,4.60110,2470.81,2023-12-20T15:31:16Z
2023-12-20T13:31:47Z,42.805,6.029,13.3034,4.60112,2470.833,2023-12-20T15:34:17Z
2023-12-20T13:34:50Z,42.805,6.029,13.3034,4.60110,2470.847,2023-12-20T15:37:21Z
2023-12-20T13:37:53Z,42.805,6.029,13.3031,4.60109,2470.81,2023-12-20T15:40:24Z
2023-12-20T13:40:56Z,42.805,6.029,13.3031,4.60108,2470.833,2023-12-20T15:43:27Z
2023-12-20T13:44:00Z,42.805,6.029,13.3034,4.60111,2470.847,2023-12-20T15:46:30Z
2023-12-20T13:47:03Z,42.805,6.029,13.3036,4.60110,2470.81,2023-12-20T15:49:33Z
2023-12-20T13:50:06Z,42.805,6.029,13.3036,4.60113,2470.81,2023-12-20T15:52:36Z
2023-12-20T13:53:09Z,42.805,6.029,13.3033,4.60110,2470.81,2023-12-20T15:55:39Z
2023-12-20T13:56:12Z,42.805,6.029,13.3034,4.60111,2470.8,2023-12-20T15:58:42Z
2023-12-20T13:59:15Z,42.805,6.029,13.3036,4.60112,2470.824,2023-12-20T16:01:45Z
2023-12-20T14:02:18Z,42.805,6.029,13.3056,4.60132,2470.81,2023-12-20T16:04:48Z
2023-12-20T14:05:21Z,42.805,6.029,13.3058,4.60140,2470.81,2023-12-20T16:07:51Z
2023-12-20T14:08:24Z,42.805,6.029,13.3034,4.60119,2470.847,2023-12-20T16:10:54Z
2023-12-20T14:11:27Z,42.805,6.029,13.3032,4.60114,2470.833,2023-12-20T16:13:58Z
2023-12-20T14:14:30Z,42.805,6.029,13.3041,4.60116,2470.81,2023-12-20T16:17:01Z
2023-12-20T14:17:34Z,42.805,6.029,13.3059,4.60142,2470.824,2023-12-20T16:20:04Z
2023-12-20T14:20:37Z,42.805,6.029,13.3060,4.60140,2470.81,2023-12-20T16:23:07Z
2023-12-20T14:23:40Z,42.805,6.029,13.3072,4.60179,2470.81,2023-12-20T16:26:10Z
2023-12-20T14:26:43Z,42.805,6.029,13.3048,4.60184,2470.847,2023-12-20T16:29:13Z
2023-12-20T14:29:46Z,42.805,6.029,13.3049,4.60173,2470.763,2023-12-20T16:32:16Z
2023-12-20T14:32:49Z,42.805,6.029,13.3062,4.60164,2470.8,2023-12-20T16:35:19Z
2023-12-20T14:35:52Z,42.805,6.029,13.3054,4.60164,2470.787,2023-12-20T16:38:22Z
2023-12-20T14:38:55Z,42.805,6.029,13.3064,4.60157,2470.81,2023-12-20T16:41:25Z
2023-12-20T14:41:58Z,42.805,6.029,13.3046,4.60157,2470.787,2023-12-20T16:44:28Z
2023-12-20T14:45:01Z,42.805,6.029,13.3054,4.60182,2470.787,2023-12-20T16:47:32Z
2023-12-20T14:48:04Z,42.805,6.029,13.3058,4.60157,2470.787,2023-12-20T16:50:35Z
2023-12-20T14:51:07Z,42.805,6.029,13.3061,4.60164,2470.824,2023-12-20T16:53:38Z
2023-12-20T14:54:11Z,42.805,6.029,13.3064,4.60170,2470.847,2023-12-20T16:56:41Z
2023-12-20T14:57:14Z,42.805,6.029,13.3056,4.60164,2470.8,2023-12-20T16:59:44Z
2023-12-20T15:00:17Z,42.805,6.029,13.3056,4.60161,2470.824,2023-12-20T17:02:47Z